Content
SEND FEEDBACK

Daily
Averages
Monthly
Summary
United States of America

SAN FRANCISCO, CALIFORNIA


Home > North America > United States > California
Elevation: 128 feet     Latitude: 37 46N     Longitude: 122 26W

WEATHER
 
SELECT A DAY
Number of Records: 184,835;   Date Range: 1/1/95 - 7/26/14
 
SHARE

PRINT THIS DATA

[ ← Previous Day ]
WEATHER ALMANAC - APRIL 26, 2013
[ Next Day → ]
[ °C ]   °F
Weather ElementAverageHighLow
Temperature53.9 °F60.1 °F (12:56 pm)50 °F (10:46 pm)
Dewpoint44.9 °F46 °F (12:56 pm)44.1 °F (7:56 am)
Humidity72 %83 % (10:56 pm)57 % (1:56 pm)
Barometer30.21 in30.25 in (10:56 am)30.15 in (1:56 am)
Wind Speed13.8 mph24.2 mph (3:56 pm)
Wind Gust24.2 mph (1:56 pm)
Weather ElementAverage
Visibility10 mi
Wind DirectionWNW (276.8 °)

Weather ElementTotal
Precipitation---
Heating Degree Days10 (Base 65)
Growing Degree Days5.1 (Base 50)
Averaged from 25 records on April 26, 2013
WEATHER CONDITIONS BREAKOUT
WIND DIRECTION BREAKOUT
WEATHER BY HOUR - APRIL 26, 2013
[ °C ]   °F
Local TimeTemperatureDewpointHumidityBarometerVisibilityWind DirectionWind SpeedGust SpeedPrecipitationEventsConditions
1:56 AM53.1 °F45.0 °F74 %30.15 in10.0 miWSW (250°)4.6 mphMostly Cloudy
2:56 AM53.1 °F45.0 °F74 %30.15 in10.0 miWest (260°)5.8 mphMostly Cloudy
3:56 AM53.1 °F45.0 °F74 %30.17 in10.0 miWest (270°)5.8 mphOvercast
4:56 AM53.1 °F45.0 °F74 %30.17 in10.0 miWest (280°)8.1 mphOvercast
5:56 AM52.0 °F45.0 °F77 %30.17 in10.0 miWNW (300°)6.9 mphOvercast
6:56 AM52.0 °F45.0 °F77 %30.19 in10.0 miWNW (290°)9.2 mphOvercast
7:56 AM52.0 °F44.1 °F74 %30.22 in10.0 miWSW (250°)9.2 mphOvercast
8:56 AM52.0 °F44.1 °F74 %30.24 in10.0 miWSW (240°)5.8 mphOvercast
9:56 AM54.0 °F45.0 °F72 %30.24 in10.0 miWNW (290°)4.6 mphOvercast
10:56 AM57.0 °F45.0 °F64 %30.25 in10.0 miWNW (290°)10.4 mphPartly Cloudy
11:56 AM57.9 °F45.0 °F62 %30.24 in10.0 miWNW (300°)13.8 mphPartly Cloudy
12:56 PM60.1 °F46.0 °F60 %30.22 in10.0 miWNW (300°)15.0 mphPartly Cloudy
1:56 PM60.1 °F45.0 °F57 %30.22 in10.0 miWNW (290°)19.6 mph24.2 mphPartly Cloudy
2:56 PM59.0 °F45.0 °F60 %30.21 in10.0 miWNW (300°)20.7 mphPartly Cloudy
3:56 PM59.0 °F46.0 °F62 %30.20 in10.0 miWNW (290°)24.2 mphPartly Cloudy
4:56 PM57.0 °F46.0 °F67 %30.20 in10.0 miWest (280°)23.0 mphPartly Cloudy
5:56 PM55.9 °F45.0 °F67 %30.20 in10.0 miWest (280°)21.9 mphPartly Cloudy
6:56 PM53.1 °F45.0 °F74 %30.21 in10.0 miWest (270°)23.0 mphScattered Clouds
7:56 PM51.1 °F44.1 °F77 %30.21 in10.0 miWest (260°)18.4 mphScattered Clouds
8:56 PM51.1 °F44.1 °F77 %30.22 in10.0 miWest (270°)19.6 mphScattered Clouds
9:56 PM51.1 °F44.1 °F77 %30.24 in10.0 miWest (270°)15.0 mphPartly Cloudy
10:46 PM50.0 °F44.6 °F82 %30.24 in10.0 miWest (270°)16.1 mphScattered Clouds
10:52 PM50.0 °F44.6 °F82 %30.24 in10.0 miWest (270°)15.0 mphMostly Cloudy
10:56 PM50.0 °F45.0 °F83 %30.24 in10.0 miWest (270°)15.0 mphMostly Cloudy
11:56 PM50.0 °F44.1 °F80 %30.24 in10.0 miWest (280°)13.8 mphMostly Cloudy
Hourly data recorded from KSFO, located miles away from San Francisco, California







STORIES FROM OUR PARTNERS